SR - Orbit

View from above orbital plane
View from above orbital plane
View from above satellite
View from above satellite

Ground track
Ground track

The orbit data is extracted from the following two-line orbital elements,

1 00046U 60007B   13139.16837335  .00000575  00000-0  13869-3 0  3672
2 00046 066.6907 187.5154 0224128 257.9697 099.6213 14.47001675764496
Epoch (UTC): 19 May 2013 04:02:27
Eccentricity: 0.0224128
inclination: 66.6907°
perigee height: 576 km
apogee height: 895 km
right ascension of ascending node: 187.5154°
argument of perigee: 257.9697°
revolutions per day: 14.47001675
mean anomaly at epoch: 99.6213°
orbit number at epoch: 76449

The dashed part of the orbit path shows where the satellite is in the earth's shadow,  

Developed and maintained by Chris Peat, Heavens-Above GmbH. Please read the updated FAQ before sending e-mail. Imprint. DLR